TimeMST,TemperatureF,Dew PointF,Humidity,Sea Level PressureIn,VisibilityMPH,Wind Direction,Wind SpeedMPH,Gust SpeedMPH,PrecipitationIn,Events,Conditions,WindDirDegrees,DateUTC
12:15 AM,57.2,50.0,77,30.40,10.0,SSE,4.6,-,N/A,,Clear,150,2013-08-22 07:15:00
12:35 AM,57.2,50.0,77,30.40,10.0,South,6.9,-,N/A,,Clear,170,2013-08-22 07:35:00
12:55 AM,57.2,48.2,72,30.40,10.0,SSE,4.6,-,N/A,,Clear,160,2013-08-22 07:55:00
1:15 AM,57.2,48.2,72,30.40,10.0,SSE,3.5,-,N/A,,Clear,150,2013-08-22 08:15:00
1:35 AM,55.4,48.2,77,30.40,10.0,South,5.8,-,N/A,,Clear,170,2013-08-22 08:35:00
1:55 AM,57.2,48.2,72,30.40,10.0,South,3.5,-,N/A,,Clear,190,2013-08-22 08:55:00
2:15 AM,55.4,50.0,82,30.39,10.0,South,3.5,-,N/A,,Clear,170,2013-08-22 09:15:00
2:35 AM,55.4,50.0,82,30.38,10.0,SSE,6.9,-,N/A,,Clear,150,2013-08-22 09:35:00
2:55 AM,55.4,50.0,82,30.38,10.0,SSE,8.1,-,N/A,,Mostly Cloudy,150,2013-08-22 09:55:00
3:15 AM,55.4,50.0,82,30.38,10.0,SSE,3.5,-,N/A,,Overcast,150,2013-08-22 10:15:00
3:35 AM,55.4,50.0,82,30.38,10.0,South,5.8,-,N/A,,Overcast,170,2013-08-22 10:35:00
3:55 AM,55.4,50.0,82,30.38,10.0,SSE,8.1,-,N/A,,Overcast,160,2013-08-22 10:55:00
4:15 AM,55.4,50.0,82,30.37,10.0,SSE,8.1,-,N/A,,Scattered Clouds,160,2013-08-22 11:15:00
4:35 AM,55.4,48.2,77,30.37,10.0,SSE,8.1,-,N/A,,Clear,150,2013-08-22 11:35:00
4:55 AM,55.4,48.2,77,30.37,10.0,SSE,8.1,-,N/A,,Clear,160,2013-08-22 11:55:00
5:15 AM,55.4,48.2,77,30.37,10.0,SSE,8.1,-,N/A,,Clear,150,2013-08-22 12:15:00
5:35 AM,55.4,48.2,77,30.37,10.0,SSE,6.9,-,N/A,,Clear,160,2013-08-22 12:35:00
5:55 AM,55.4,48.2,77,30.38,10.0,SSE,8.1,-,N/A,,Clear,150,2013-08-22 12:55:00
6:15 AM,55.4,48.2,77,30.38,10.0,SSW,4.6,-,N/A,,Clear,210,2013-08-22 13:15:00
6:35 AM,57.2,48.2,72,30.39,10.0,SSE,4.6,-,N/A,,Scattered Clouds,150,2013-08-22 13:35:00
6:55 AM,57.2,50.0,77,30.39,10.0,SSE,5.8,-,N/A,,Partly Cloudy,150,2013-08-22 13:55:00
7:15 AM,60.8,50.0,68,30.39,10.0,SSE,5.8,-,N/A,,Clear,150,2013-08-22 14:15:00
7:35 AM,60.8,50.0,68,30.40,10.0,SSE,5.8,-,N/A,,Scattered Clouds,150,2013-08-22 14:35:00
7:55 AM,64.4,50.0,59,30.40,10.0,SSE,4.6,-,N/A,,Mostly Cloudy,150,2013-08-22 14:55:00
8:15 AM,66.2,51.8,60,30.41,10.0,SSE,3.5,-,N/A,,Mostly Cloudy,150,2013-08-22 15:15:00
8:35 AM,68.0,51.8,56,30.41,10.0,Calm,Calm,-,N/A,,Scattered Clouds,0,2013-08-22 15:35:00
8:55 AM,69.8,50.0,49,30.41,10.0,ESE,4.6,-,N/A,,Scattered Clouds,110,2013-08-22 15:55:00
9:15 AM,71.6,48.2,43,30.41,10.0,Calm,Calm,-,N/A,,Scattered Clouds,0,2013-08-22 16:15:00
9:35 AM,71.6,48.2,43,30.41,10.0,Calm,Calm,-,N/A,,Partly Cloudy,0,2013-08-22 16:35:00
9:55 AM,73.4,48.2,41,30.41,10.0,Calm,Calm,-,N/A,,Scattered Clouds,0,2013-08-22 16:55:00
10:15 AM,73.4,50.0,44,30.41,10.0,NNW,4.6,-,N/A,,Mostly Cloudy,330,2013-08-22 17:15:00
10:35 AM,73.4,50.0,44,30.41,10.0,NNE,3.5,-,N/A,,Scattered Clouds,30,2013-08-22 17:35:00
10:55 AM,73.4,48.2,41,30.41,10.0,WNW,5.8,-,N/A,,Scattered Clouds,300,2013-08-22 17:55:00
11:15 AM,73.4,48.2,41,30.41,10.0,North,3.5,-,N/A,,Partly Cloudy,360,2013-08-22 18:15:00
11:35 AM,75.2,46.4,36,30.41,10.0,North,6.9,-,N/A,,Clear,10,2013-08-22 18:35:00
11:55 AM,75.2,48.2,38,30.40,10.0,North,8.1,-,N/A,,Mostly Cloudy,360,2013-08-22 18:55:00
12:15 PM,75.2,46.4,36,30.40,10.0,North,6.9,-,N/A,,Mostly Cloudy,360,2013-08-22 19:15:00
12:35 PM,75.2,46.4,36,30.38,10.0,ENE,13.8,18.4,N/A,,Mostly Cloudy,70,2013-08-22 19:35:00
12:55 PM,73.4,46.4,38,30.39,10.0,Calm,Calm,-,N/A,,Overcast,0,2013-08-22 19:55:00
1:15 PM,73.4,48.2,41,30.39,10.0,East,5.8,-,N/A,,Overcast,100,2013-08-22 20:15:00
1:35 PM,68.0,53.6,60,30.39,10.0,South,8.1,-,N/A,,Mostly Cloudy,190,2013-08-22 20:35:00
1:55 PM,66.2,55.4,68,30.38,10.0,South,5.8,-,N/A,,Partly Cloudy,170,2013-08-22 20:55:00
2:15 PM,66.2,55.4,68,30.37,10.0,SSE,6.9,-,N/A,,Clear,160,2013-08-22 21:15:00
2:35 PM,66.2,57.2,73,30.36,10.0,SSE,6.9,-,N/A,,Scattered Clouds,150,2013-08-22 21:35:00
2:55 PM,71.6,50.0,46,30.35,10.0,SSW,4.6,-,N/A,,Partly Cloudy,210,2013-08-22 21:55:00
3:15 PM,73.4,50.0,44,30.34,10.0,West,4.6,-,N/A,,Clear,280,2013-08-22 22:15:00
3:35 PM,75.2,50.0,41,30.33,10.0,WNW,6.9,-,N/A,,Clear,290,2013-08-22 22:35:00
3:55 PM,75.2,48.2,38,30.32,10.0,WNW,4.6,-,N/A,,Clear,290,2013-08-22 22:55:00
4:15 PM,75.2,48.2,38,30.32,10.0,NNW,6.9,-,N/A,,Clear,330,2013-08-22 23:15:00
4:35 PM,77.0,48.2,36,30.31,10.0,NW,9.2,-,N/A,,Partly Cloudy,310,2013-08-22 23:35:00
4:55 PM,77.0,48.2,36,30.30,10.0,WNW,6.9,-,N/A,,Scattered Clouds,290,2013-08-22 23:55:00
5:15 PM,71.6,53.6,53,30.32,10.0,NW,17.3,23.0,N/A,,Mostly Cloudy,310,2013-08-23 00:15:00
5:35 PM,62.6,55.4,77,30.33,1.8,NW,15.0,20.7,0.16,,Overcast,310,2013-08-23 00:35:00
5:55 PM,60.8,53.6,77,30.34,5.0,NW,5.8,-,0.18,,Overcast,320,2013-08-23 00:55:00
6:15 PM,59.0,55.4,88,30.34,10.0,West,5.8,-,0.02,,Overcast,280,2013-08-23 01:15:00
6:35 PM,60.8,55.4,82,30.34,10.0,WNW,5.8,-,0.02,,Overcast,300,2013-08-23 01:35:00
6:55 PM,60.8,55.4,82,30.35,10.0,East,8.1,-,0.02,,Mostly Cloudy,100,2013-08-23 01:55:00
7:15 PM,59.0,53.6,82,30.34,10.0,NNE,8.1,-,N/A,,Mostly Cloudy,30,2013-08-23 02:15:00
7:35 PM,59.0,53.6,82,30.34,10.0,Calm,Calm,-,N/A,,Clear,0,2013-08-23 02:35:00
7:55 PM,59.0,53.6,82,30.35,10.0,Calm,Calm,-,N/A,,Clear,0,2013-08-23 02:55:00
8:15 PM,57.2,55.4,94,30.35,10.0,SE,6.9,-,N/A,,Scattered Clouds,140,2013-08-23 03:15:00
8:35 PM,59.0,55.4,88,30.34,10.0,SSE,4.6,-,N/A,,Mostly Cloudy,150,2013-08-23 03:35:00
8:55 PM,59.0,55.4,88,30.35,10.0,SSE,5.8,-,N/A,,Mostly Cloudy,160,2013-08-23 03:55:00
9:15 PM,59.0,53.6,82,30.34,10.0,SSE,5.8,-,N/A,,Mostly Cloudy,160,2013-08-23 04:15:00
9:35 PM,59.0,55.4,88,30.34,10.0,SSE,8.1,-,N/A,,Mostly Cloudy,150,2013-08-23 04:35:00
9:55 PM,59.0,53.6,82,30.34,10.0,SSE,4.6,-,N/A,,Mostly Cloudy,150,2013-08-23 04:55:00
10:15 PM,59.0,53.6,82,30.34,10.0,Calm,Calm,-,N/A,,Mostly Cloudy,0,2013-08-23 05:15:00
10:35 PM,59.0,53.6,82,30.34,10.0,Calm,Calm,-,N/A,,Partly Cloudy,0,2013-08-23 05:35:00
10:55 PM,59.0,53.6,82,30.35,10.0,West,8.1,-,N/A,,Clear,270,2013-08-23 05:55:00
11:15 PM,60.8,53.6,77,30.36,10.0,WSW,8.1,-,N/A,,Clear,250,2013-08-23 06:15:00
11:35 PM,59.0,53.6,82,30.35,10.0,West,4.6,-,N/A,,Partly Cloudy,260,2013-08-23 06:35:00
11:55 PM,59.0,53.6,82,30.36,10.0,WSW,8.1,-,N/A,,Mostly Cloudy,250,2013-08-23 06:55:00